User: anonymous   Login
Location: Unspecified
(0.0000°N, 0.0000°E)
Time: 23:00:48
(UTC+00:00)
Language:

ONEWEB-0043 - Orbit

View from above orbital plane
View from above orbital plane
View from above satellite
View from above satellite

Ground track
Ground track

The orbit is defined by the following mean orbital elements,

1 45149U          26145.44936547 +.00000000 +00000-0 +36281-4 0 00000
2 45149  87.8857  40.7922 0002390  76.0864 284.0529 13.10375167    01
Epoch (UTC): 25 May 2026 10:47:05
Eccentricity: 0.0002390
inclination: 87.8857°
perigee height: 1220 km
apogee height: 1224 km
right ascension of ascending node: 40.7922°
argument of perigee: 76.0864°
revolutions per day: 13.10375167
mean anomaly at epoch: 284.0529°

The dashed part of the orbit path shows where the satellite is in the earth's shadow,  

DLR